[[{"header":{"parameterUnit":"m.s-1","parameterCategory":1,"la1":30.2992,"la2":30.254,"lo1":-89.0895,"lo2":-89.0443,"dy":0.0025,"dx":0.0025,"nx":19,"ny":19,"refTime":"2026-03-09T09:00:00:Z","depth":0,"parameterNumber":2,"parameterNumberName":"U-component_of_WINDS"},"data":[0,0,0,-2.3813,-2.3815,-2.3934,-2.3935,-2.4082,-2.4083,0,0,0,0,0,0,0,0,0,0,0,-2.3773,-2.3774,-2.3813,-2.3815,-2.3934,-2.3935,-2.4082,-2.4083,0,0,0,0,0,0,0,0,0,0,0,-2.3772,-2.3773,-2.3774,-2.3816,-2.3934,-2.3935,-2.4081,-2.3994,0,0,0,0,0,0,0,0,0,0,-2.3879,-2.3837,-2.3773,-2.3774,-2.3816,-2.3934,-2.3935,-2.399,-2.3999,-2.4025,0,-2.4046,0,-2.4067,-2.4092,-2.4093,0,0,0,-2.3819,-2.3829,-2.3865,-2.3775,-2.3818,-2.3934,-2.3882,-2.3995,-2.4006,-2.4038,-2.4048,-2.4053,-2.4069,-2.4093,-2.4094,-2.4227,-2.4228,0,0,-2.3813,-2.3792,-2.3858,-2.3872,-2.3851,-2.3878,-2.3885,-2.4002,-2.4012,-2.4048,-2.4057,-2.4071,-2.4094,-2.4095,-2.4227,-2.4227,0,0,0,-2.3791,-2.3787,-2.3821,-2.3866,-2.3888,-2.3881,-2.389,-2.4006,-2.4019,-2.4059,-2.4073,-2.4095,-2.4097,-2.4226,-2.4227,-2.4226,0,0,0,-2.3788,-2.3775,-2.3818,-2.3806,-2.3885,-2.3948,-2.3892,-2.4011,-2.4025,-2.4072,-2.4095,-2.4098,-2.4226,-2.4227,-2.4225,-2.4229,0,0,0,-2.3767,-2.3772,-2.3788,-2.3805,-2.3855,-2.3947,-2.3966,-2.4014,-2.4034,-2.4093,-2.4098,-2.4226,-2.4227,-2.4225,-2.4228,-2.4257,0,0,0,-2.3739,-2.3786,-2.3787,-2.3846,-2.3854,-2.3945,-2.3966,-2.4036,-2.4087,-2.4096,-2.4226,-2.4227,-2.4224,-2.4227,-2.4256,-2.4277,-2.4284,0,0,-2.3787,-2.3791,-2.3828,-2.3832,-2.3918,-2.3929,-2.4016,-2.4083,-2.411,-2.4187,-2.4191,-2.4226,-2.4228,-2.4257,-2.4333,-2.4338,0,0,0,-2.3836,-2.3862,-2.3889,-2.3936,-2.3988,-2.4033,-2.409,-2.4115,-2.4182,-2.4144,-2.4246,-2.4248,-2.4266,-2.4277,-2.4281,-2.4298,-2.4231,-2.4231,-2.4231,-2.3873,-2.3903,-2.3965,-2.401,-2.4055,-2.4113,-2.4154,-2.4198,-2.4216,-2.424,-2.4262,-2.4304,-2.4316,-2.432,-2.4337,-2.4277,-2.4277,-2.4277,-2.4277,-2.3945,-2.3986,-2.4009,-2.4077,-2.4109,-2.4168,-2.4227,-2.4238,-2.4298,-2.429,-2.4307,-2.4294,-2.4324,-2.4341,-2.4277,-2.4277,-2.4277,-2.4277,-2.4277,-2.3971,-2.3996,-2.4026,-2.4097,-2.4149,-2.4194,-2.425,-2.4279,-2.4306,-2.4324,-2.435,-2.435,-2.4353,-2.4335,-2.4335,-2.4335,-2.4335,-2.4335,-2.4335,-2.3986,-2.4019,-2.4062,-2.4122,-2.4156,-2.4205,-2.4266,-2.4301,-2.4347,-2.4364,-2.4364,-2.4379,-2.4322,-2.4306,-2.4338,-2.4337,-2.4337,-2.4337,-2.4337,-2.4045,-2.4036,-2.4102,-2.4136,-2.421,-2.426,-2.4296,-2.4366,-2.4399,-2.4426,-2.4439,-2.4393,-2.44,-2.4396,-2.4383,-2.4433,-2.4433,-2.4433,-2.4433,-2.4066,-2.4072,-2.4146,-2.4199,-2.4255,-2.4294,-2.437,-2.4418,-2.4467,-2.449,-2.4488,-2.4474,-2.4469,-2.4479,-2.4474,-2.4462,-2.453,-2.453,-2.453,-2.4104,-2.4117,-2.4174,-2.422,-2.428,-2.4332,-2.4404,-2.4465,-2.452,-2.4535,-2.4509,-2.4505,-2.4483,-2.4474,-2.4485,-2.4477,-2.4456,0,0]},{"header":{"parameterUnit":"m.s-1","parameterCategory":1,"la1":30.2992,"la2":30.254,"lo1":-89.0895,"lo2":-89.0443,"dy":0.0025,"dx":0.0025,"nx":19,"ny":19,"refTime":"2026-03-09T09:00:00:Z","depth":0,"parameterNumber":3,"parameterNumberName":"V-component_of_WINDS"},"data":[0,0,0,3.7836,3.784,3.8069,3.807,3.8346,3.8349,0,0,0,0,0,0,0,0,0,0,0,3.7755,3.7756,3.7835,3.7841,3.8069,3.807,3.8346,3.8349,0,0,0,0,0,0,0,0,0,0,0,3.7754,3.7756,3.7757,3.7842,3.8069,3.8071,3.8346,3.818,0,0,0,0,0,0,0,0,0,0,3.796,3.7871,3.7755,3.7757,3.7843,3.8069,3.8071,3.8172,3.819,3.8235,0,3.8268,0,3.8313,3.8366,3.8367,0,0,0,3.7851,3.7856,3.793,3.7758,3.7845,3.8068,3.7969,3.8182,3.8202,3.8258,3.8272,3.8283,3.8317,3.8368,3.8369,3.8588,3.8589,0,0,3.7839,3.7789,3.7916,3.7942,3.7903,3.7962,3.7976,3.8195,3.8208,3.8273,3.829,3.8322,3.8369,3.8371,3.8588,3.8588,0,0,0,3.7795,3.778,3.7849,3.7931,3.7973,3.7968,3.7985,3.8198,3.8224,3.8293,3.8325,3.8371,3.8374,3.8587,3.8588,3.8566,0,0,0,3.7788,3.7754,3.7842,3.7814,3.7968,3.8088,3.7982,3.8209,3.8236,3.8324,3.8371,3.8376,3.8587,3.8588,3.8566,3.8564,0,0,0,3.7744,3.775,3.7778,3.7811,3.7908,3.8085,3.8125,3.8216,3.8255,3.8367,3.8377,3.8586,3.8587,3.8565,3.8564,3.8609,0,0,0,3.7684,3.7754,3.7776,3.7869,3.7905,3.8069,3.8124,3.8249,3.8342,3.8372,3.8587,3.8588,3.8565,3.8563,3.8608,3.8639,3.8646,0,0,3.7745,3.776,3.7818,3.7845,3.7991,3.8038,3.8184,3.8317,3.8374,3.8514,3.8521,3.8566,3.8563,3.8609,3.8705,3.8711,0,0,0,3.7821,3.7862,3.7912,3.7999,3.8102,3.8192,3.8308,3.8359,3.8481,3.8435,3.8596,3.8596,3.8625,3.8642,3.8647,3.8676,3.8593,3.8593,3.8593,3.7836,3.7906,3.8008,3.8106,3.8189,3.8311,3.8386,3.8476,3.852,3.8557,3.8599,3.8649,3.8667,3.8671,3.87,3.8621,3.8621,3.8621,3.862,3.7934,3.8005,3.8065,3.8185,3.826,3.8363,3.8485,3.8514,3.8623,3.8622,3.8651,3.8644,3.8675,3.8705,3.862,3.862,3.862,3.862,3.862,3.7952,3.7998,3.8058,3.8193,3.829,3.8389,3.8491,3.8556,3.8617,3.8646,3.8699,3.87,3.871,3.8667,3.8667,3.8667,3.8667,3.8667,3.8667,3.7948,3.8016,3.8093,3.8212,3.8278,3.8373,3.8499,3.8567,3.866,3.8699,3.87,3.8743,3.8664,3.8644,3.867,3.867,3.8669,3.8669,3.8669,3.8022,3.8016,3.8135,3.8201,3.8348,3.8443,3.8524,3.8658,3.8724,3.8774,3.8813,3.8744,3.8764,3.876,3.8744,3.8795,3.8795,3.8795,3.8795,3.8038,3.8055,3.8193,3.8296,3.8404,3.8491,3.8628,3.8729,3.8832,3.8878,3.8881,3.8864,3.8858,3.8882,3.8876,3.8862,3.8942,3.8942,3.8943,3.8089,3.812,3.8222,3.8321,3.8442,3.8545,3.8678,3.8797,3.8913,3.895,3.8917,3.891,3.8885,3.8873,3.8908,3.8897,3.8872,0,0]}]]